KF6ILA Weather Reports


Display with metric or nautical units.
time (UTC)temp
F
wind
direction
speed
MPH
gust
MPH
rain 1hr
in
rain 24hr
in
rain mn
in
humidity
%
barometer
mb
20260503203734 53 269 13.0 23.0 0.00 0.00 0.00 93 1010.8
20260503203400 52 289 15.0 23.0 0.00 0.00 0.00 93 1010.7
20260503203237 52 289 15.0 23.0 0.00 0.00 0.00 93 1010.7
20260503202740 52 289 15.0 21.0 0.00 0.00 0.00 93 1010.8
20260503202243 52 277 12.0 23.0 0.00 0.00 0.00 94 1011.2
20260503201746 52 286 14.0 23.0 0.00 0.00 0.00 94 1011.2
20260503201249 52 301 16.0 21.0 0.00 0.00 0.00 94 1011.0
20260503200752 52 297 13.0 22.0 0.00 0.00 0.00 93 1011.1
20260503200336 52 296 16.0 22.0 0.00 0.00 0.00 92 1011.9
20260503200255 52 296 16.0 22.0 0.00 0.00 0.00 92 1011.9
20260503195830 53 292 13.0 21.0 0.00 0.00 0.00 90 1011.8
20260503195758 53 292 13.0 21.0 0.00 0.00 0.00 90 1011.8
20260503194923 55 295 12.0 19.0 0.00 0.00 0.00 85 1011.9
20260503194804 55 295 12.0 19.0 0.00 0.00 0.00 85 1011.9
20260503193313 59 296 11.0 18.0 0.00 0.00 0.00 81 1011.8
20260503192934 59 311 11.0 18.0 0.00 0.00 0.00 81 1011.9
20260503192816 59 311 11.0 18.0 0.00 0.00 0.00 81 1011.9
20260503191822 61 321 11.0 20.0 0.00 0.00 0.00 75 1011.9
20260503191325 62 304 10.0 20.0 0.00 0.00 0.00 75 1012.0
20260503190418 63 279 11.0 20.0 0.00 0.00 0.00 71 1012.0
20260503190331 63 279 11.0 20.0 0.00 0.00 0.00 71 1012.0
20260503183349 67 243 11.0 21.0 0.00 0.00 0.00 45 1012.3
20260503182355 65 262 6.0 15.0 0.00 0.00 0.00 55 1012.1
20260503181858 64 262 7.0 14.0 0.00 0.00 0.00 61 1012.3
20260503180904 63 313 6.0 14.0 0.00 0.00 0.00 61 1012.4
20260503180407 64 273 8.0 15.0 0.00 0.00 0.00 65 1012.4
20260503175943 63 273 8.0 15.0 0.00 0.00 0.00 65 1012.3
20260503175910 63 273 8.0 15.0 0.00 0.00 0.00 65 1012.3
20260503175413 63 231 9.0 18.0 0.00 0.00 0.00 65 1012.3
20260503174916 63 263 8.0 18.0 0.00 0.00 0.00 68 1012.2
20260503174419 63 278 12.0 18.0 0.00 0.00 0.00 68 1012.2
20260503173922 63 284 9.0 14.0 0.00 0.00 0.00 69 1012.2
20260503172928 62 259 7.0 15.0 0.00 0.00 0.00 72 1012.1
20260503171934 63 287 12.0 17.0 0.00 0.00 0.00 69 1012.1
20260503130707 53 273 8.0 11.0 0.00 0.00 0.00 65 1010.2
20260503130210 54 266 6.0 9.0 0.00 0.00 0.00 63 1010.0
20260503110819 58 286 11.0 17.0 0.00 0.00 0.00 43 1010.6
20260503090434 61 269 9.0 11.0 0.00 0.00 0.00 30 1011.7
20260503081504 62 272 9.0 13.0 0.00 0.00 0.00 29 1012.2
20260503071043 62 258 9.0 13.0 0.00 0.00 0.00 30 1012.8
20260503070618 62 259 8.0 14.0 0.00 0.00 0.00 29 1012.8
20260503070546 62 259 8.0 14.0 0.00 0.00 0.00 29 1012.8
20260503060125 62 264 9.0 12.0 0.00 0.00 0.00 29 1013.1
20260503054634 63 272 9.0 14.0 0.00 0.00 0.00 29 1013.2
20260503051156 62 280 9.0 12.0 0.00 0.00 0.00 30 1013.0
20260503050658 62 280 9.0 12.0 0.00 0.00 0.00 31 1013.1
20260503050201 62 275 8.0 11.0 0.00 0.00 0.00 30 1013.1
20260503045207 61 277 8.0 10.0 0.00 0.00 0.00 31 1013.1
20260503044710 61 276 8.0 10.0 0.00 0.00 0.00 31 1013.0
20260503043219 61 277 7.0 11.0 0.00 0.00 0.00 32 1012.8
20260503042722 61 278 8.0 11.0 0.00 0.00 0.00 34 1012.7
20260503042226 61 274 7.0 10.0 0.00 0.00 0.00 34 1012.6
20260503041232 61 277 8.0 10.0 0.00 0.00 0.00 35 1012.6
20260503040734 61 275 8.0 10.0 0.00 0.00 0.00 36 1012.6
20260503040237 61 271 7.0 10.0 0.00 0.00 0.00 36 1012.5
20260503035740 60 275 7.0 10.0 0.00 0.00 0.00 35 1012.6
20260503033753 60 270 7.0 9.0 0.00 0.00 0.00 37 1012.2
20260503032304 61 269 6.0 8.0 0.00 0.00 0.00 41 1012.8
20260503031308 61 267 6.0 9.0 0.00 0.00 0.00 46 1012.8
20260503030811 61 265 7.0 9.0 0.00 0.00 0.00 46 1012.8
20260503030314 62 269 7.0 11.0 0.00 0.00 0.00 50 1012.6
20260503025817 62 271 7.0 11.0 0.00 0.00 0.00 53 1012.7
20260503025320 62 269 8.0 11.0 0.00 0.00 0.00 54 1012.7
20260503023829 62 263 9.0 12.0 0.00 0.00 0.00 57 1012.5
20260503023332 63 261 9.0 13.0 0.00 0.00 0.00 58 1012.5
20260503022834 63 265 10.0 13.0 0.00 0.00 0.00 61 1012.5
20260503021344 63 258 10.0 14.0 0.00 0.00 0.00 64 1012.3
20260503020350 64 256 9.0 14.0 0.00 0.00 0.00 68 1012.3
20260503015853 64 252 10.0 13.0 0.00 0.00 0.00 67 1012.3
20260503014858 65 260 9.0 15.0 0.00 0.00 0.00 63 1012.3
20260503011917 66 253 11.0 16.0 0.00 0.00 0.00 57 1012.2
20260503011420 67 256 10.0 16.0 0.00 0.00 0.00 56 1012.2
20260503010426 68 256 10.0 14.0 0.00 0.00 0.00 60 1012.2
20260503003941 70 256 9.0 16.0 0.00 0.00 0.00 55 1012.3
20260503003444 71 255 9.0 14.0 0.00 0.00 0.00 54 1012.3
20260503002450 71 267 10.0 15.0 0.00 0.00 0.00 49 1012.2
20260503001456 72 249 10.0 15.0 0.00 0.00 0.00 52 1012.2
20260503000502 72 279 9.0 14.0 0.00 0.00 0.00 50 1012.4
20260502233023 75 251 8.0 12.0 0.00 0.00 0.00 44 1012.4
20260502225544 73 287 7.0 14.0 0.00 0.00 0.00 43 1011.8
20260502224549 74 262 8.0 16.0 0.00 0.00 0.00
20260502224053 74 266 10.0 16.0 0.00 0.00 0.00 45 1012.1
20260502223556 74 270 9.0 15.0 0.00 0.00 0.00 41
20260502220614 76 289 8.0 0.0 5.00 0.00 0.00 44 101.2
20260502215620 79 179 8.0 15.0 0.00 0.00 0.00 21 1013.1
20260502215123 80 144 7.0 15.0 0.00 0.00 0.00 22 1013.1
20260502214626 80 102 8.0 15.0 0.00 0.00 0.00 23 1013.2
20260502214129 80 134 7.0 16.0 0.00 0.00 0.00 23 1013.2
20260502213632 80 161 8.0 16.0 0.00 0.00 0.00 23 1013.2
20260502212638 81 164 12.0 19.0 0.00 0.00 0.00 21 1013.2
20260502212141 81 141 6.0 19.0 0.00 0.00 0.00 23 1013.2
20260502211644 80 136 9.0 16.0 0.00 0.00 0.00 23 1013.2
20260502211147 80 154 8.0 18.0 0.00 0.00 0.00 24 1013.1
20260502210153 79 121 6.0 21.0 0.00 0.00 0.00 23 1013.0
20260502205159 79 130 8.0 20.0 0.00 0.00 0.00 24 1013.5
20260502204702 79 169 9.0 20.0 0.00 0.00 0.00 23 1013.6